Location: El Escondido
(32.5111°N, 116.6697°W)
Time: 15:25:20
(UTC+00:00)

Cosmos 1300 - Pass Details

Date: 03 August 2024
Orbit: 455 x 456 km, 82.5° (Epoch: 09 September)

Event Time Altitude Azimuth Distance (km) Brightness Sun altitude
Exits shadow 12:28:30 10° 244° (WSW) 1,653 4.6 -7.5°
Reaches altitude 10° 12:28:37 10° 245° (WSW) 1,624 4.5 -7.4°
Maximum altitude 12:30:48 15° 283° (WNW) 1,330 4.3 -7.0°
Drops below altitude 10° 12:32:59 10° 321° (NW) 1,633 5.1 -6.6°
Sets 12:35:46 0° 345° (NNW) 2,515 6.3 -6.1°
